TimeCDT,TemperatureF,Dew PointF,Humidity,Sea Level PressureIn,VisibilityMPH,Wind Direction,Wind SpeedMPH,Gust SpeedMPH,PrecipitationIn,Events,Conditions,WindDirDegrees,DateUTC
12:52 AM,16.0,12.9,88,30.13,10.0,East,4.6,-,N/A,,Clear,100,2013-03-11 05:52:00
1:52 AM,17.1,12.9,84,30.09,10.0,SE,9.2,-,N/A,,Clear,140,2013-03-11 06:52:00
2:52 AM,16.0,12.9,88,30.08,10.0,ESE,5.8,-,N/A,,Clear,110,2013-03-11 07:52:00
3:52 AM,17.1,12.9,84,30.04,10.0,SSE,6.9,-,N/A,,Partly Cloudy,150,2013-03-11 08:52:00
4:52 AM,17.6,12.2,79,29.93,10.0,SSE,5.8,-,N/A,,Clear,160,2013-03-11 09:52:00
5:52 AM,18.0,14.0,84,29.97,10.0,SE,8.1,-,N/A,,Partly Cloudy,140,2013-03-11 10:52:00
6:52 AM,18.0,14.0,84,29.94,10.0,SSE,9.2,-,N/A,,Overcast,160,2013-03-11 11:52:00
7:52 AM,19.9,15.1,81,29.94,10.0,South,5.8,-,N/A,,Overcast,190,2013-03-11 12:52:00
8:52 AM,19.0,14.0,81,29.91,10.0,SSE,8.1,-,N/A,,Clear,150,2013-03-11 13:52:00
9:52 AM,23.0,15.1,72,29.91,10.0,SSW,4.6,-,N/A,,Clear,210,2013-03-11 14:52:00
10:52 AM,28.0,18.0,66,29.91,10.0,WSW,8.1,-,N/A,,Clear,250,2013-03-11 15:52:00
11:52 AM,33.1,23.0,66,29.90,10.0,NW,13.8,27.6,N/A,,Partly Cloudy,310,2013-03-11 16:52:00
12:52 PM,34.0,24.1,67,29.92,10.0,NW,26.5,38.0,N/A,,Partly Cloudy,320,2013-03-11 17:52:00
1:52 PM,37.0,26.1,65,29.92,10.0,NW,24.2,33.4,N/A,,Clear,320,2013-03-11 18:52:00
2:52 PM,37.0,25.0,62,29.93,10.0,NW,24.2,33.4,N/A,,Partly Cloudy,310,2013-03-11 19:52:00
3:52 PM,37.9,24.1,57,29.92,10.0,NW,27.6,39.1,N/A,,Clear,320,2013-03-11 20:52:00
4:52 PM,39.0,24.1,55,29.93,10.0,NW,25.3,36.8,N/A,,Clear,310,2013-03-11 21:52:00
5:52 PM,39.0,23.0,53,29.93,10.0,WNW,26.5,35.7,N/A,,Partly Cloudy,290,2013-03-11 22:52:00
6:52 PM,36.0,21.0,55,29.94,10.0,NW,21.9,32.2,N/A,,Clear,310,2013-03-11 23:52:00
7:52 PM,34.0,21.0,59,29.97,10.0,NW,21.9,39.1,N/A,,Mostly Cloudy,310,2013-03-12 00:52:00
8:52 PM,32.0,21.0,64,29.98,10.0,WNW,19.6,28.8,N/A,,Mostly Cloudy,300,2013-03-12 01:52:00
9:52 PM,30.0,21.0,69,30.00,10.0,NW,23.0,31.1,N/A,,Overcast,310,2013-03-12 02:52:00
10:50 PM,28.4,21.2,74,29.93,9.0,NW,17.3,33.4,0.00,,Overcast,310,2013-03-12 03:50:00
10:52 PM,28.0,21.0,75,30.00,9.0,NW,17.3,33.4,0.00,,Overcast,310,2013-03-12 03:52:00
11:41 PM,27.0,21.9,81,29.95,1.8,NW,20.7,34.5,0.00,Snow,Light Snow,310,2013-03-12 04:41:00
11:52 PM,27.0,21.9,81,30.02,2.0,NW,20.7,33.4,0.00,Snow,Light Snow,320,2013-03-12 04:52:00